| time (UTC) | temp F | wind direction | speed MPH | gust MPH | rain 1hr in | rain 24hr in | rain mn in | humidity % | barometer mb |
| 20260831151303 | 68 | 0 | 3.0 | 12.0 | 0.00 | 0.02 | 0.02 | 67 | 1018.7 |
| 20260831150804 | 68 | 0 | 4.0 | 12.0 | 0.00 | 0.02 | 0.02 | 68 | 1018.8 |
| 20260831150304 | 68 | 0 | 4.0 | 8.0 | 0.00 | 0.02 | 0.02 | 69 | 1018.8 |
| 20260831145804 | 68 | 0 | 3.0 | 8.0 | 0.00 | 0.02 | 0.02 | 69 | 1019.1 |
| 20260831145306 | 67 | 0 | 5.0 | 7.0 | 0.00 | 0.02 | 0.02 | 69 | 1019.1 |
| 20260831144804 | 67 | 0 | 3.0 | 7.0 | 0.00 | 0.02 | 0.02 | 70 | 1019.1 |
| 20260831144304 | 67 | 0 | 5.0 | 8.0 | 0.00 | 0.02 | 0.02 | 71 | 1019.2 |
| 20260831143804 | 67 | 0 | 5.0 | 8.0 | 0.00 | 0.02 | 0.02 | 71 | 1019.1 |
| 20260831143303 | 67 | 0 | 3.0 | 7.0 | 0.00 | 0.02 | 0.02 | 70 | 1019.2 |
| 20260831142803 | 67 | 0 | 5.0 | 7.0 | 0.00 | 0.02 | 0.02 | 70 | 1019.2 |
| 20260831142306 | 68 | 0 | 3.0 | 7.0 | 0.00 | 0.02 | 0.02 | 68 | 1019.3 |
| 20260831141304 | 68 | 0 | 2.0 | 5.0 | 0.00 | 0.02 | 0.02 | 67 | 1019.1 |
| 20260831140304 | 68 | 0 | 3.0 | 5.0 | 0.00 | 0.02 | 0.02 | 67 | 1019.2 |
| 20260831135804 | 67 | 0 | 0.0 | 7.0 | 0.00 | 0.02 | 0.02 | 68 | 1019.2 |
| 20260831135306 | 67 | 0 | 5.0 | 7.0 | 0.00 | 0.02 | 0.02 | 68 | 1019.2 |
| 20260831133803 | 68 | 0 | 0.0 | 7.0 | 0.00 | 0.02 | 0.02 | 68 | 1019.2 |
| 20260831132803 | 68 | 0 | 4.0 | 8.0 | 0.00 | 0.02 | 0.02 | 65 | 1019.2 |
| 20260831132306 | 69 | 0 | 5.0 | 8.0 | 0.00 | 0.02 | 0.02 | 65 | 1019.1 |
| 20260831131304 | 68 | 0 | 3.0 | 7.0 | 0.00 | 0.02 | 0.02 | 67 | 1019.1 |
| 20260831130803 | 68 | 0 | 2.0 | 9.0 | 0.00 | 0.02 | 0.02 | 67 | 1019.0 |
| 20260831130304 | 68 | 0 | 5.0 | 12.0 | 0.00 | 0.02 | 0.02 | 66 | 1019.1 |
| 20260831125306 | 68 | 0 | 5.0 | 10.0 | 0.00 | 0.02 | 0.02 | 68 | 1019.1 |
| 20260831124804 | 68 | 0 | 3.0 | 9.0 | 0.00 | 0.02 | 0.02 | 68 | 1019.1 |
| 20260831124304 | 68 | 0 | 4.0 | 8.0 | 0.00 | 0.02 | 0.02 | 69 | 1019.1 |
| 20260831123804 | 68 | 0 | 5.0 | 9.0 | 0.00 | 0.02 | 0.02 | 69 | 1019.2 |
| 20260831123304 | 68 | 0 | 4.0 | 9.0 | 0.00 | 0.02 | 0.02 | 70 | 1019.1 |
| 20260831122804 | 67 | 0 | 5.0 | 7.0 | 0.00 | 0.02 | 0.02 | 71 | 1019.0 |
| 20260831122305 | 67 | 0 | 3.0 | 8.0 | 0.00 | 0.02 | 0.02 | 72 | 1019.0 |
| 20260831121303 | 67 | 0 | 5.0 | 10.0 | 0.00 | 0.02 | 0.02 | 73 | 1018.9 |
| 20260831120803 | 67 | 0 | 5.0 | 9.0 | 0.00 | 0.02 | 0.02 | 73 | 1019.0 |
| 20260831120304 | 67 | 0 | 3.0 | 7.0 | 0.00 | 0.02 | 0.02 | 72 | 1019.0 |
| 20260831115306 | 67 | 0 | 2.0 | 8.0 | 0.00 | 0.02 | 0.02 | 73 | 1019.3 |
| 20260831114803 | 67 | 0 | 5.0 | 8.0 | 0.00 | 0.02 | 0.02 | 73 | 1019.1 |
| 20260831114303 | 67 | 0 | 2.0 | 10.0 | 0.00 | 0.02 | 0.02 | 71 | 1019.2 |
| 20260831113803 | 67 | 0 | 5.0 | 12.0 | 0.00 | 0.02 | 0.02 | 70 | 1019.3 |
| 20260831112804 | 68 | 0 | 5.0 | 12.0 | 0.00 | 0.02 | 0.02 | 71 | 1019.2 |
| 20260831111303 | 67 | 0 | 5.0 | 9.0 | 0.00 | 0.02 | 0.02 | 74 | 1019.1 |
| 20260831105306 | 66 | 0 | 8.0 | 14.0 | 0.00 | 0.02 | 0.02 | 78 | 1018.9 |
| 20260831104804 | 66 | 0 | 6.0 | 12.0 | 0.00 | 0.02 | 0.02 | 78 | 1018.9 |
| 20260831104303 | 66 | 0 | 5.0 | 12.0 | 0.00 | 0.02 | 0.02 | 78 | 1019.0 |
| 20260831103804 | 66 | 0 | 7.0 | 14.0 | 0.00 | 0.02 | 0.02 | 77 | 1018.9 |
| 20260831103303 | 67 | 0 | 5.0 | 15.0 | 0.00 | 0.02 | 0.02 | 77 | 1018.9 |
| 20260831102804 | 67 | 359 | 9.0 | 15.0 | 0.00 | 0.02 | 0.02 | 76 | 1018.8 |
| 20260831102306 | 67 | 0 | 7.0 | 13.0 | 0.00 | 0.02 | 0.02 | 77 | 1018.8 |
| 20260831101803 | 66 | 348 | 6.0 | 14.0 | 0.00 | 0.02 | 0.02 | 78 | 1018.8 |
| 20260831101303 | 66 | 0 | 8.0 | 14.0 | 0.00 | 0.02 | 0.02 | 77 | 1018.8 |
| 20260831100803 | 66 | 0 | 7.0 | 13.0 | 0.00 | 0.02 | 0.02 | 78 | 1018.7 |
| 20260831100309 | 67 | 0 | 8.0 | 13.0 | 0.00 | 0.02 | 0.02 | 77 | 1018.8 |
| 20260831095804 | 67 | 359 | 8.0 | 14.0 | 0.00 | 0.02 | 0.02 | 77 | 1018.7 |
| 20260831095306 | 67 | 336 | 7.0 | 14.0 | 0.00 | 0.02 | 0.02 | 76 | 1018.8 |
| 20260831093304 | 68 | 27 | 5.0 | 10.0 | 0.00 | 0.02 | 0.02 | 76 | 1018.6 |
| 20260831092803 | 67 | 23 | 4.0 | 12.0 | 0.00 | 0.02 | 0.02 | 77 | 1018.5 |
| 20260831092306 | 66 | 15 | 7.0 | 13.0 | 0.00 | 0.02 | 0.02 | 78 | 1018.5 |
| 20260831090803 | 66 | 0 | 5.0 | 12.0 | 0.00 | 0.02 | 0.02 | 78 | 1018.6 |
| 20260831085804 | 67 | 0 | 7.0 | 14.0 | 0.00 | 0.02 | 0.02 | 78 | 1018.7 |
| 20260831085306 | 67 | 347 | 8.0 | 14.0 | 0.00 | 0.02 | 0.02 | 76 | 1018.7 |
| 20260831084804 | 68 | 342 | 5.0 | 12.0 | 0.00 | 0.02 | 0.02 | 75 | 1018.7 |
| 20260831083303 | 69 | 333 | 8.0 | 12.0 | 0.00 | 0.02 | 0.02 | 72 | 1018.7 |
| 20260831082804 | 69 | 358 | 6.0 | 10.0 | 0.00 | 0.02 | 0.02 | 72 | 1018.6 |
| 20260831082306 | 69 | 334 | 2.0 | 8.0 | 0.00 | 0.02 | 0.02 | 73 | 1018.5 |
| 20260831080304 | 70 | 307 | 2.0 | 9.0 | 0.00 | 0.02 | 0.02 | 67 | 1018.3 |
| 20260831074804 | 70 | 251 | 5.0 | 9.0 | 0.00 | 0.02 | 0.02 | 68 | 1018.1 |
| 20260831074304 | 69 | 209 | 2.0 | 6.0 | 0.00 | 0.02 | 0.02 | 69 | 1018.2 |
| 20260831072803 | 68 | 130 | 2.0 | 3.0 | 0.00 | 0.02 | 0.02 | 73 | 1018.2 |
| 20260831072306 | 68 | 136 | 2.0 | 3.0 | 0.00 | 0.02 | 0.02 | 75 | 1018.3 |
| 20260831063803 | 63 | 144 | 1.0 | 3.0 | 0.00 | 0.02 | 0.02 | 88 | 1018.1 |
| 20260831063303 | 62 | 130 | 2.0 | 3.0 | 0.00 | 0.02 | 0.02 | 88 | 1018.1 |
| 20260831062305 | 62 | 198 | 1.0 | 3.0 | 0.00 | 0.02 | 0.02 | 89 | 1018.1 |
| 20260831061303 | 61 | 156 | 2.0 | 3.0 | 0.00 | 0.02 | 0.02 | 90 | 1018.0 |
| 20260831060303 | 60 | 200 | 2.0 | 6.0 | 0.00 | 0.02 | 0.02 | 91 | 1018.1 |
| 20260831055803 | 60 | 0 | 3.0 | 6.0 | 0.00 | 0.02 | 0.02 | 91 | 1018.1 |
| 20260831055306 | 60 | 0 | 1.0 | 3.0 | 0.00 | 0.02 | 0.02 | 92 | 1018.0 |
| 20260831054803 | 60 | 2 | 2.0 | 3.0 | 0.00 | 0.02 | 0.02 | 91 | 1018.0 |
| 20260831054303 | 60 | 116 | 1.0 | 3.0 | 0.00 | 0.02 | 0.02 | 91 | 1018.0 |
| 20260831053303 | 60 | 150 | 0.0 | 3.0 | 0.00 | 0.02 | 0.02 | 91 | 1018.1 |
| 20260831052803 | 60 | 142 | 1.0 | 3.0 | 0.00 | 0.02 | 0.02 | 91 | 1018.0 |
| 20260831052306 | 60 | 215 | 1.0 | 5.0 | 0.00 | 0.02 | 0.02 | 91 | 1018.0 |
| 20260831050803 | 60 | 0 | 2.0 | 5.0 | 0.00 | 0.02 | 0.02 | 91 | 1018.1 |
| 20260831050303 | 60 | 145 | 2.0 | 5.0 | 0.00 | 0.02 | 0.02 | 91 | 1017.9 |
| 20260831045803 | 60 | 262 | 2.0 | 5.0 | 0.00 | 0.02 | 0.02 | 90 | 1017.9 |
| 20260831045306 | 60 | 0 | 2.0 | 3.0 | 0.00 | 0.02 | 0.02 | 90 | 1018.0 |
| 20260831044803 | 60 | 337 | 1.0 | 3.0 | 0.00 | 0.02 | 0.02 | 90 | 1018.0 |
| 20260831043803 | 60 | 0 | 2.0 | 5.0 | 0.00 | 0.02 | 0.02 | 90 | 1017.9 |
| 20260831043303 | 60 | 151 | 2.0 | 5.0 | 0.00 | 0.02 | 0.02 | 90 | 1018.0 |
| 20260831042803 | 60 | 139 | 1.0 | 5.0 | 0.00 | 0.02 | 0.02 | 90 | 1018.0 |
| 20260831041804 | 60 | 3 | 1.0 | 3.0 | 0.00 | 0.02 | 0.02 | 89 | 1017.8 |
| 20260831041304 | 60 | 101 | 0.0 | 3.0 | 0.00 | 0.02 | 0.02 | 89 | 1017.8 |
| 20260831040803 | 60 | 98 | 0.0 | 3.0 | 0.00 | 0.02 | 0.02 | 90 | 1018.0 |
| 20260831040303 | 60 | 96 | 1.0 | 2.0 | 0.00 | 0.02 | 0.02 | 90 | 1017.9 |
| 20260831035306 | 60 | 34 | 0.0 | 2.0 | 0.00 | 0.02 | 0.02 | 90 | 1018.0 |
| 20260831034804 | 60 | 54 | 0.0 | 2.0 | 0.00 | 0.02 | 0.02 | 89 | 1018.0 |
| 20260831034304 | 60 | 5 | 1.0 | 3.0 | 0.00 | 0.02 | 0.02 | 89 | 1018.0 |
| 20260831033804 | 60 | 96 | 1.0 | 3.0 | 0.01 | 0.02 | 0.02 | 89 | 1018.0 |
| 20260831033304 | 61 | 43 | 2.0 | 3.0 | 0.01 | 0.02 | 0.02 | 89 | 1018.2 |
| 20260831032306 | 61 | 1 | 0.0 | 2.0 | 0.02 | 0.02 | 0.02 | 87 | 1018.1 |
| 20260831031804 | 61 | 0 | 1.0 | 3.0 | 0.02 | 0.02 | 0.02 | 87 | 1018.2 |
| 20260831030803 | 61 | 0 | 2.0 | 3.0 | 0.02 | 0.02 | 0.02 | 86 | 1018.2 |
| 20260831030304 | 62 | 182 | 2.0 | 5.0 | 0.02 | 0.02 | 0.02 | 85 | 1018.4 |
| 20260831025803 | 62 | 359 | 2.0 | 5.0 | 0.02 | 0.02 | 0.02 | 84 | 1018.4 |
| 20260831025306 | 62 | 355 | 2.0 | 9.0 | 0.02 | 0.02 | 0.02 | 83 | 1018.4 |
| 20260831024804 | 62 | 5 | 2.0 | 12.0 | 0.02 | 0.02 | 0.02 | 82 | 1018.4 |
| 20260831024304 | 63 | 136 | 4.0 | 12.0 | 0.02 | 0.02 | 0.02 | 81 | 1018.4 |
| 20260831023303 | 64 | 124 | 3.0 | 10.0 | 0.02 | 0.02 | 0.02 | 78 | 1018.7 |
| 20260831021803 | 63 | 0 | 2.0 | 16.0 | 0.01 | 0.01 | 0.01 | 79 | 1018.4 |
| 20260831020804 | 64 | 358 | 4.0 | 28.0 | 0.01 | 0.01 | 0.01 | 78 | 1018.2 |
| 20260831015803 | 65 | 0 | 10.0 | 24.0 | 0.01 | 0.01 | 0.01 | 76 | 1018.1 |
| 20260831015306 | 65 | 0 | 9.0 | 22.0 | 0.00 | 0.00 | 0.00 | 77 | 1018.1 |
| 20260831013303 | 61 | 0 | 2.0 | 3.0 | 0.00 | 0.00 | 0.00 | 87 | 1015.7 |
| 20260831012804 | 61 | 0 | 2.0 | 3.0 | 0.00 | 0.00 | 0.00 | 87 | 1015.8 |
| 20260831012306 | 62 | 0 | 1.0 | 3.0 | 0.00 | 0.00 | 0.00 | 87 | 1015.7 |
| 20260831011804 | 62 | 0 | 0.0 | 3.0 | 0.00 | 0.00 | 0.00 | 87 | 1015.8 |
| 20260831011304 | 62 | 0 | 0.0 | 2.0 | 0.00 | 0.00 | 0.00 | 87 | 1015.7 |
| 20260831010805 | 62 | 0 | 0.0 | 1.0 | 0.00 | 0.00 | 0.00 | 86 | 1015.7 |
| 20260831010303 | 62 | 0 | 0.0 | 3.0 | 0.00 | 0.00 | 0.00 | 86 | 1015.6 |
| 20260831005803 | 62 | 0 | 1.0 | 3.0 | 0.00 | 0.00 | 0.00 | 87 | 1015.6 |
| 20260831003304 | 63 | 0 | 2.0 | 5.0 | 0.00 | 0.00 | 0.00 | 85 | 1015.5 |
| 20260831002804 | 63 | 0 | 2.0 | 5.0 | 0.00 | 0.00 | 0.00 | 84 | 1015.5 |
| 20260831001304 | 63 | 8 | 2.0 | 3.0 | 0.00 | 0.00 | 0.00 | 83 | 1015.8 |
| 20260831000804 | 64 | 0 | 1.0 | 3.0 | 0.00 | 0.00 | 0.00 | 84 | 1016.0 |
| 20260831000303 | 63 | 0 | 1.0 | 3.0 | 0.00 | 0.00 | 0.00 | 83 | 1016.1 |
| 20260830235803 | 63 | 0 | 0.0 | 3.0 | 0.00 | 0.00 | 0.00 | 82 | 1016.1 |
| 20260830235305 | 63 | 0 | 3.0 | 3.0 | 0.00 | 0.00 | 0.00 | 83 | 1016.2 |
| 20260830234803 | 63 | 0 | 1.0 | 3.0 | 0.00 | 0.00 | 0.00 | 84 | 1016.2 |
| 20260830234304 | 63 | 0 | 2.0 | 3.0 | 0.00 | 0.00 | 0.00 | 85 | 1016.3 |
| 20260830233304 | 63 | 0 | 1.0 | 3.0 | 0.00 | 0.00 | 0.00 | 83 | 1016.3 |
| 20260830232804 | 64 | 0 | 1.0 | 2.0 | 0.00 | 0.00 | 0.00 | 83 | 1016.2 |
| 20260830232305 | 64 | 0 | 0.0 | 0.0 | 0.00 | 0.00 | 0.00 | 83 | 1015.9 |
| 20260830231804 | 64 | 0 | 0.0 | 0.0 | 0.00 | 0.00 | 0.00 | 83 | 1016.0 |
| 20260830230303 | 64 | 0 | 0.0 | 0.0 | 0.00 | 0.00 | 0.00 | 83 | 1016.1 |
| 20260830223303 | 65 | 0 | 0.0 | 0.0 | 0.00 | 0.00 | 0.00 | 81 | 1016.1 |
| 20260830222803 | 65 | 0 | 0.0 | 0.0 | 0.00 | 0.00 | 0.00 | 81 | 1016.2 |
| 20260830222306 | 66 | 0 | 0.0 | 1.0 | 0.00 | 0.00 | 0.00 | 81 | 1016.2 |
| 20260830221303 | 66 | 0 | 0.0 | 3.0 | 0.00 | 0.00 | 0.00 | 80 | 1016.1 |
| 20260830220803 | 66 | 0 | 2.0 | 3.0 | 0.00 | 0.00 | 0.00 | 80 | 1016.2 |
| 20260830212804 | 66 | 0 | 1.0 | 5.0 | 0.00 | 0.00 | 0.00 | 80 | 1016.2 |
| 20260830211803 | 66 | 0 | 0.0 | 0.0 | 0.00 | 0.00 | 0.00 | 82 | 1017.0 |
| 20260830211303 | 66 | 0 | 0.0 | 0.0 | 0.00 | 0.00 | 0.00 | 82 | 1017.0 |
| 20260830210803 | 66 | 0 | 0.0 | 0.0 | 0.00 | 0.00 | 0.00 | 82 | 1017.0 |
| 20260830205803 | 66 | 0 | 0.0 | 3.0 | 0.00 | 0.00 | 0.00 | 82 | 1017.1 |
| 20260830203803 | 66 | 0 | 2.0 | 3.0 | 0.00 | 0.00 | 0.00 | 82 | 1016.9 |
| 20260830202305 | 67 | 0 | 1.0 | 3.0 | 0.00 | 0.00 | 0.00 | 80 | 1016.9 |
| 20260830201804 | 67 | 0 | 1.0 | 3.0 | 0.00 | 0.00 | 0.00 | 80 | 1016.8 |
| 20260830200804 | 67 | 0 | 3.0 | 3.0 | 0.00 | 0.00 | 0.00 | 79 | 1016.8 |
| 20260830200304 | 67 | 0 | 1.0 | 3.0 | 0.00 | 0.00 | 0.00 | 78 | 1016.7 |
| 20260830195804 | 67 | 0 | 0.0 | 0.0 | 0.00 | 0.00 | 0.00 | 78 | 1016.8 |
| 20260830193803 | 68 | 0 | 0.0 | 0.0 | 0.00 | 0.00 | 0.00 | 77 | 1016.7 |
| 20260830193303 | 68 | 0 | 0.0 | 0.0 | 0.00 | 0.00 | 0.00 | 77 | 1016.8 |
| 20260830185306 | 69 | 0 | 0.0 | 0.0 | 0.00 | 0.00 | 0.00 | 74 | 1016.6 |
| 20260830184803 | 69 | 0 | 0.0 | 0.0 | 0.00 | 0.00 | 0.00 | 74 | 1016.6 |
| 20260830182803 | 70 | 0 | 0.0 | 0.0 | 0.00 | 0.00 | 0.00 | 71 | 1016.5 |
| 20260830182306 | 71 | 0 | 0.0 | 0.0 | 0.00 | 0.00 | 0.00 | 70 | 1016.5 |
| 20260830181803 | 71 | 0 | 0.0 | 0.0 | 0.00 | 0.00 | 0.00 | 69 | 1016.4 |
| 20260830180303 | 72 | 153 | 0.0 | 0.0 | 0.00 | 0.00 | 0.00 | 68 | 1016.5 |
| 20260830175803 | 72 | 153 | 0.0 | 1.0 | 0.00 | 0.00 | 0.00 | 68 | 1016.5 |
| 20260830174803 | 73 | 153 | 1.0 | 3.0 | 0.00 | 0.00 | 0.00 | 67 | 1016.5 |
| 20260830174303 | 73 | 169 | 0.0 | 0.0 | 0.00 | 0.00 | 0.00 | 67 | 1016.5 |
| 20260830173303 | 73 | 184 | 0.0 | 2.0 | 0.00 | 0.00 | 0.00 | 65 | 1016.6 |
| 20260830171804 | 74 | 184 | 1.0 | 3.0 | 0.00 | 0.00 | 0.00 | 62 | 1016.5 |
| 20260830171304 | 74 | 184 | 2.0 | 3.0 | 0.00 | 0.00 | 0.00 | 62 | 1016.5 |
| 20260830165804 | 74 | 92 | 1.0 | 3.0 | 0.00 | 0.00 | 0.00 | 61 | 1016.3 |
| 20260830165305 | 74 | 46 | 1.0 | 3.0 | 0.00 | 0.00 | 0.00 | 60 | 1016.2 |
| 20260830164804 | 74 | 57 | 1.0 | 3.0 | 0.00 | 0.00 | 0.00 | 60 | 1016.4 |
| 20260830164304 | 74 | 39 | 2.0 | 5.0 | 0.00 | 0.00 | 0.00 | 59 | 1016.4 |
| 20260830163803 | 74 | 318 | 2.0 | 5.0 | 0.00 | 0.00 | 0.00 | 59 | 1016.4 |
| 20260830162803 | 74 | 349 | 3.0 | 6.0 | 0.00 | 0.00 | 0.00 | 59 | 1016.2 |
| 20260830161803 | 74 | 344 | 3.0 | 8.0 | 0.00 | 0.00 | 0.00 | 59 | 1016.5 |
| 20260830161303 | 75 | 354 | 5.0 | 8.0 | 0.00 | 0.00 | 0.00 | 59 | 1016.4 |
| 20260830160804 | 75 | 351 | 3.0 | 6.0 | 0.00 | 0.00 | 0.00 | 59 | 1016.4 |
| 20260830160303 | 75 | 350 | 4.0 | 10.0 | 0.00 | 0.00 | 0.00 | 59 | 1016.4 |
| 20260830155803 | 75 | 333 | 4.0 | 10.0 | 0.00 | 0.00 | 0.00 | 59 | 1016.4 |
| 20260830155306 | 75 | 0 | 5.0 | 10.0 | 0.00 | 0.00 | 0.00 | 58 | 1016.3 |
| 20260830154804 | 75 | 355 | 5.0 | 8.0 | 0.00 | 0.00 | 0.00 | 59 | 1016.3 |
| 20260830153303 | 75 | 333 | 5.0 | 10.0 | 0.00 | 0.00 | 0.00 | 59 | 1016.3 |
| 20260830152803 | 75 | 355 | 5.0 | 9.0 | 0.00 | 0.00 | 0.00 | 58 | 1016.3 |